Weather History for Ironwood, MI

Change the Weather History Date:

Sunday, October 6, 2013

  Actual Average Record
Temperature  
Mean Temperature 50 °F -  
Max Temperature 55 °F 56 °F 78 °F (2011)
Min Temperature 46 °F 37 °F 21 °F (1999)
Degree Days  
Heating Degree Days 14    
Moisture  
Dew Point 46 °F    
Average Humidity 85    
Maximum Humidity 88    
Minimum Humidity 77    
Precipitation  
Precipitation 0.46 in - - ()
Sea Level Pressure  
Sea Level Pressure 29.67 in    
Wind  
Wind Speed 5 mph (NW)    
Max Wind Speed 12 mph    
Max Gust Speed -    
Visibility 8 miles    
Events      
Averages and records for this station are not official NWS values.
T = Trace of Precipitation, MM = Missing Value Source: NWS Daily Summary

Daily Weather History Graph

Daily Weather History Graph

Search for Another Location

Airport:

Trip Planner

Search our weather history database for the weather conditions in past years. The results will help you decide how hot, cold, wet, or windy it might be!

Date:

Astronomy

Oct. 06, 2013 Rise Set
Actual Time 7:06 AM CDT 6:30 PM CDT
Civil Twilight 6:35 AM CDT 7:00 PM CDT
Nautical Twilight 6:01 AM CDT 7:35 PM CDT
Astronomical Twilight 5:25 AM CDT 8:10 PM CDT
Moon 8:58 AM CDT (10/6) 7:20 PM CDT (10/6)
Length of Visible Light 12h 24m
Length of Day
11h 24m
Waxing Crescent, 3% of the Moon is Illuminated
Oct 6
Waxing Crescent
Oct 11
First Quarter
Oct 18
Full
Oct 26
Last Quarter
Nov 3
New

Hourly Weather History & Observations

Time (CDT) Temp. Windchill Dew Point Humidity Pressure Visibility Wind Dir Wind Speed Gust Speed Precip Events Conditions
12:15 AM 51.8 °F - 46.4 °F 82% 29.71 in 5.0 mi Calm Calm - 0.05 in   Overcast
12:35 AM 50.0 °F - 46.4 °F 87% 29.70 in 3.0 mi Calm Calm - 0.38 in   Overcast
12:55 AM 50.0 °F - 46.4 °F 87% 29.70 in 6.0 mi Calm Calm - 0.42 in   Overcast
1:15 AM 50.0 °F - 46.4 °F 87% 29.70 in 5.0 mi ENE 8.1 mph - 0.02 in   Overcast
1:35 AM 50.0 °F - 46.4 °F 87% 29.68 in 9.0 mi ENE 6.9 mph - 0.02 in   Overcast
1:55 AM 50.0 °F - 46.4 °F 87% 29.68 in 10.0 mi ENE 5.8 mph - 0.02 in   Overcast
2:15 AM 50.0 °F - 46.4 °F 87% 29.67 in 10.0 mi ENE 4.6 mph - N/A   Overcast
2:35 AM 50.0 °F - 46.4 °F 87% 29.67 in 10.0 mi ENE 3.5 mph - N/A   Overcast
2:55 AM 50.0 °F - 46.4 °F 87% 29.65 in 10.0 mi East 3.5 mph - N/A   Mostly Cloudy
3:15 AM 48.2 °F - 44.6 °F 87% 29.65 in 10.0 mi Calm Calm - N/A   Mostly Cloudy
3:35 AM 50.0 °F - 46.4 °F 87% 29.64 in 10.0 mi East 4.6 mph - N/A   Overcast
3:55 AM 50.0 °F - 46.4 °F 87% 29.65 in 10.0 mi East 5.8 mph - N/A   Overcast
4:15 AM 50.0 °F - 46.4 °F 87% 29.64 in 10.0 mi Calm Calm - N/A   Overcast
4:35 AM 50.0 °F - 46.4 °F 87% 29.65 in 10.0 mi Calm Calm - N/A   Overcast
4:55 AM 50.0 °F - 46.4 °F 87% 29.66 in 10.0 mi Calm Calm - N/A   Overcast
5:15 AM 51.8 °F - 46.4 °F 82% 29.66 in 10.0 mi SSE 4.6 mph - N/A   Overcast
5:35 AM 51.8 °F - 46.4 °F 82% 29.65 in 10.0 mi Calm Calm - N/A   Overcast
5:55 AM 51.8 °F - 46.4 °F 82% 29.65 in 10.0 mi SE 4.6 mph - N/A   Overcast
6:15 AM 51.8 °F - 48.2 °F 88% 29.64 in 10.0 mi Calm Calm - N/A   Overcast
6:35 AM 51.8 °F - 48.2 °F 88% 29.63 in 10.0 mi Calm Calm - N/A   Overcast
6:55 AM 51.8 °F - 48.2 °F 88% 29.62 in 10.0 mi SSW 4.6 mph - N/A   Overcast
7:15 AM 51.8 °F - 48.2 °F 88% 29.63 in 8.0 mi SSW 3.5 mph - N/A   Overcast
7:35 AM 51.8 °F - 48.2 °F 88% 29.63 in 8.0 mi WSW 6.9 mph - N/A   Overcast
7:55 AM 51.8 °F - 48.2 °F 88% 29.63 in 9.0 mi SW 6.9 mph - N/A   Overcast
8:15 AM 51.8 °F - 48.2 °F 88% 29.64 in 10.0 mi SSW 8.1 mph - N/A   Overcast
8:35 AM 51.8 °F - 48.2 °F 88% 29.64 in 8.0 mi SSW 8.1 mph - N/A   Overcast
8:55 AM 51.8 °F - 48.2 °F 88% 29.64 in 9.0 mi WSW 9.2 mph - N/A   Overcast
9:15 AM 51.8 °F - 48.2 °F 88% 29.65 in 10.0 mi West 10.4 mph - N/A   Overcast
9:35 AM 51.8 °F - 46.4 °F 82% 29.65 in 9.0 mi West 9.2 mph - N/A   Overcast
9:55 AM 51.8 °F - 46.4 °F 82% 29.65 in 8.0 mi West 10.4 mph - N/A   Overcast
10:15 AM 51.8 °F - 46.4 °F 82% 29.65 in 10.0 mi WSW 5.8 mph - N/A   Overcast
10:35 AM 53.6 °F - 46.4 °F 77% 29.65 in 10.0 mi West 4.6 mph - N/A   Overcast
10:55 AM 51.8 °F - 46.4 °F 82% 29.66 in 7.0 mi West 6.9 mph - N/A   Overcast
11:15 AM 51.8 °F - 48.2 °F 88% 29.66 in 10.0 mi West 8.1 mph - N/A   Overcast
11:35 AM 53.6 °F - 48.2 °F 82% 29.66 in 10.0 mi West 10.4 mph - N/A   Overcast
11:55 AM 53.6 °F - 48.2 °F 82% 29.66 in 10.0 mi West 8.1 mph - N/A   Overcast
12:15 PM 55.4 °F - 48.2 °F 77% 29.66 in 10.0 mi WNW 8.1 mph - N/A   Overcast
12:35 PM 53.6 °F - 46.4 °F 77% 29.66 in 10.0 mi West 9.2 mph - N/A   Overcast
12:55 PM 53.6 °F - 48.2 °F 82% 29.66 in 10.0 mi NW 10.4 mph - N/A   Overcast
1:15 PM 53.6 °F - 48.2 °F 82% 29.65 in 10.0 mi NW 10.4 mph - N/A   Overcast
1:35 PM 51.8 °F - 46.4 °F 82% 29.65 in 5.0 mi WNW 8.1 mph - N/A   Overcast
1:55 PM 51.8 °F - 46.4 °F 82% 29.65 in 3.0 mi NNW 10.4 mph - N/A   Overcast
2:15 PM 51.8 °F - 46.4 °F 82% 29.64 in 8.0 mi NNW 11.5 mph - N/A   Overcast
2:35 PM 50.0 °F - 44.6 °F 82% 29.64 in 5.0 mi North 8.1 mph - N/A   Overcast
2:55 PM 50.0 °F - 44.6 °F 82% 29.65 in 7.0 mi North 8.1 mph - N/A   Overcast
3:15 PM 48.2 °F - 44.6 °F 87% 29.66 in 1.8 mi Calm Calm - N/A   Overcast
3:35 PM 48.2 °F - 44.6 °F 87% 29.66 in 1.2 mi NNW 5.8 mph - N/A   Overcast
3:55 PM 48.2 °F - 44.6 °F 87% 29.66 in 1.5 mi North 6.9 mph - N/A   Overcast
4:15 PM 48.2 °F - 44.6 °F 87% 29.66 in 1.8 mi NNW 6.9 mph - N/A   Overcast
4:35 PM 48.2 °F - 44.6 °F 87% 29.67 in 1.8 mi NNW 8.1 mph - N/A   Overcast
4:55 PM 48.2 °F - 44.6 °F 87% 29.67 in 1.5 mi NNW 4.6 mph - N/A   Overcast
5:15 PM 48.2 °F - 44.6 °F 87% 29.68 in 2.0 mi NNW 5.8 mph - 0.01 in   Overcast
5:35 PM 48.2 °F - 44.6 °F 87% 29.68 in 2.5 mi NNW 6.9 mph - 0.01 in   Overcast
5:55 PM 48.2 °F - 44.6 °F 87% 29.68 in 3.0 mi NW 6.9 mph - 0.01 in   Overcast
6:15 PM 48.2 °F - 44.6 °F 87% 29.68 in 4.0 mi NW 5.8 mph - N/A   Overcast
6:35 PM 48.2 °F - 44.6 °F 87% 29.68 in 8.0 mi NW 5.8 mph - N/A   Overcast
6:55 PM 48.2 °F - 44.6 °F 87% 29.69 in 3.0 mi NW 5.8 mph - N/A   Overcast
7:15 PM 48.2 °F - 44.6 °F 87% 29.69 in 2.5 mi North 10.4 mph - N/A   Overcast
7:35 PM 46.4 °F 41.1 °F 42.8 °F 87% 29.69 in 3.0 mi NNW 11.5 mph - N/A   Overcast
7:55 PM 46.4 °F 42.9 °F 42.8 °F 87% 29.69 in 5.0 mi NNW 6.9 mph - N/A   Overcast
8:15 PM 46.4 °F 41.9 °F 42.8 °F 87% 29.69 in 5.0 mi NNW 9.2 mph - N/A   Overcast
8:35 PM 46.4 °F 41.9 °F 42.8 °F 87% 29.69 in 3.0 mi NW 9.2 mph - 0.01 in   Overcast
8:55 PM 46.4 °F 42.9 °F 42.8 °F 87% 29.69 in 9.0 mi NW 6.9 mph - 0.01 in   Overcast
9:15 PM 46.4 °F 42.4 °F 42.8 °F 87% 29.70 in 10.0 mi NW 8.1 mph - N/A   Overcast
9:35 PM 46.4 °F 42.4 °F 42.8 °F 87% 29.70 in 10.0 mi NW 8.1 mph - N/A   Overcast
9:55 PM 46.4 °F 41.1 °F 42.8 °F 87% 29.71 in 10.0 mi NW 11.5 mph - N/A   Overcast
10:15 PM 46.4 °F 41.5 °F 42.8 °F 87% 29.71 in 10.0 mi NW 10.4 mph - N/A   Overcast
10:35 PM 46.4 °F 42.9 °F 42.8 °F 87% 29.72 in 10.0 mi NNW 6.9 mph - N/A   Overcast
10:55 PM 46.4 °F 43.5 °F 42.8 °F 87% 29.73 in 10.0 mi NW 5.8 mph - N/A   Overcast
11:15 PM 46.4 °F 45.2 °F 42.8 °F 87% 29.73 in 10.0 mi West 3.5 mph - N/A   Overcast
11:35 PM 46.4 °F 45.2 °F 42.8 °F 87% 29.73 in 10.0 mi WNW 3.5 mph - N/A   Overcast
11:55 PM 46.4 °F 44.3 °F 41.0 °F 81% 29.73 in 10.0 mi West 4.6 mph - N/A   Overcast